CAPE
0 0 0 0 543 1104 1377 1437 1435 1523 1570 1723 1757 1631 1535 1409 1316 998 976 942 865 714 516 119 159 191 52 44 62 48 404 993 1286 1109 1502 1275 1158 855 699 868 639 534 634
0 0 0 14 843 1217 1486 1436 1472 1500 1773 1723 1767 1473 1428 1214 1123 678 869 1199 1097 864 536 351 201 225 76 182 439 277 119 776 1410 1358 1370 1115 535 181 198 68 3 88 189
0 0 0 0 979 1324 1550 1536 1549 1543 1828 1701 1499 1320 1246 1134 768 656 790 1234 1317 1051 711 475 348 459 208 292 781 866 265 463 1237 1458 1334 1042 958 433 3 1 1 2 3
0 0 0 0 572 1362 1589 1723 1642 1552 1632 1458 1326 1408 1235 968 744 735 741 1344 1372 1232 892 630 614 817 555 816 858 939 699 858 1149 1417 1325 1334 1140 901 54 1 0 0 0
0 0 0 0 0 1220 1591 1902 1832 1671 1481 1493 1480 1423 1029 1018 737 650 893 933 1386 1455 1116 1121 1049 1126 1033 1297 1644 1465 1491 1046 1065 1137 1207 1502 1211 1049 436 23 0 0 0
0 0 0 0 0 463 1711 1906 1844 1801 1694 1599 1789 1688 1596 1100 876 1096 1138 1275 1443 1791 1763 1314 1606 1588 1403 1457 1572 1796 1494 1498 1468 1116 1166 1213 1187 953 588 190 0 0 0
0 0 0 0 0 0 948 2189 1880 1833 1939 2142 1999 2026 1884 1810 1394 1262 1357 1130 1686 1886 2026 1758 1814 1739 1729 1392 1327 1931 1945 2007 1839 2151 1285 1206 1391 1081 864 396 4 0 0
0 0 0 0 0 0 0 1940 1870 1760 1916 2224 2349 2329 2163 1796 1701 1454 1450 1521 1731 1784 2032 2044 2009 1745 1583 1528 1546 1745 2038 2183 2494 2169 2324 1662 1487 1312 1144 421 0 0 0
0 0 0 0 0 0 0 2121 2134 1738 1898 2511 2608 2463 2052 1868 1679 1648 1717 1798 1804 1692 1994 2131 2156 2051 1837 1738 1790 1635 1906 2064 2510 2632 2724 2323 1803 1991 1522 676 37 49 0
2 0 0 0 0 0 0 827 2706 2128 2266 2592 2459 2344 2141 1941 2167 1970 1830 1859 2034 1638 1492 1941 2102 2010 1963 1880 1859 1694 1765 1884 2129 2265 2463 2561 2208 1955 2092 1226 253 247 197
0 0 0 0 0 0 0 83 2511 2105 2404 2541 2329 2317 2386 2303 2482 2230 2037 2054 2139 1834 1826 1822 1864 1884 1925 1964 1935 1801 1645 1785 1964 2033 2308 2610 2592 2327 1907 833 308 257 189
0 0 1 0 0 0 0 0 346 2414 2593 2614 2460 2438 2622 2654 2657 2540 2551 2522 2403 2494 2532 2025 1759 1818 1636 1937 1984 1878 1604 1808 2135 2252 2081 2329 1869 2165 1772 369 234 167 61
13 0 0 0 0 0 34 0 0 140 1697 2075 2395 2908 2861 2486 2644 2619 2641 2827 2920 2719 2394 2153 2413 2441 2397 2350 2239 2078 2019 2038 2254 2313 2369 2192 1954 1452 749 429 233 18 0
7 16 0 0 0 0 0 1 41 0 57 1087 2241 2615 2860 2804 2857 2788 2857 2738 2839 2907 2831 2831 2726 2644 2480 2422 2335 2040 1787 1662 1707 1937 2196 1924 1850 1125 699 120 64 1 1
6 9 12 4 1 0 0 7 29 155 114 43 884 2610 2880 2726 2758 2592 2925 3037 3126 2963 2678 2818 2638 2671 2249 2112 2316 1877 1612 1533 1065 1059 1453 1322 1197 561 246 0 0 6 2
13 1 6 9 5 0 0 0 0 2 5 192 4 854 1964 2200 2448 2610 2591 2885 2963 2897 2694 2767 2561 2100 1747 1444 1041 1446 1185 1187 800 585 482 270 21 0 0 0 0 0 4
16 10 5 9 5 2 0 0 0 3 6 4 53 96 303 1650 2375 2388 2526 2599 2911 2905 2915 2492 2038 1779 1605 671 112 267 1152 1172 845 363 9 0 0 0 0 0 0 0 0
21 16 15 4 2 2 0 0 0 0 0 5 7 7 109 43 1036 2009 2396 2656 2816 2704 2500 2119 1713 1190 1180 136 0 0 504 798 327 32 0 0 0 0 0 0 0 0 0
55 72 39 23 8 0 0 0 0 0 0 0 1 6 8 14 108 645 1781 2300 2514 2349 2080 1734 1636 1002 714 4 1 1 135 33 0 0 1 0 0 0 0 0 0 0 0
43 65 52 30 22 11 3 0 0 0 0 0 0 2 5 5 5 280 854 1841 2121 2092 1285 1363 1426 1003 698 2 2 0 20 0 0 0 0 0 0 1 0 1 0 0 0
0 0 55 67 67 36 9 1 0 0 0 0 0 0 0 3 3 3 0 1120 1722 1601 998 927 998 953 390 1 1 1 0 0 0 0 0 0 1 0 0 0 1 0 0
0 0 0 0 0 46 41 1 0 0 0 0 0 0 0 0 1 2 1 0 880 1028 640 379 17 36 1 1 1 1 1 0 0 0 0 0 0 0 0 0 0 0 0
0 0 0 0 0 0 0 0 5 0 0 0 0 0 0 0 0 1 1 0 0 24 0 0 0 1 1 1 1 1 1 1 1 1 0 0 0 0 0 0 0 0 0
0 0 0 0 0 0 0 0 0 0 0 0 0 0 0 0 0 0 1 0 0 0 0 1 1 1 1 0 0 0 0 0 1 0 2 0 0 0 0 0 0 0 0
0 0 0 0 0 0 0 0 0 0 0 0 0 0 0 2 1 0 0 0 0 0 0 0 1 0 1 0 0 0 0 0 2 0 0 0 0 0 0 0 0 0 0
0 0 0 0 0 0 0 0 0 0 0 0 0 0 0 0 10 0 0 0 0 0 1 0 3 1 0 1 0 0 0 0 0 0 0 0 0 0 0 0 0 0 0
CIN
0 0 0 0 -135 -121 -135 -151 -142 -144 -92 -59 -35 -33 -52 -54 -54 -109 -109 -119 -135 -168 -183 -214 -235 -251 -289 -288 -279 -268 -97 -4 0 0 0 0 -1 -10 -21 -8 -11 -16 -3
0 0 0 -40 -112 -103 -137 -145 -153 -132 -112 -89 -86 -75 -60 -84 -92 -181 -136 -75 -91 -134 -193 -186 -227 -248 -271 -230 -142 -172 -184 -21 0 0 0 0 -15 -83 -82 -151 -11 -87 -36
0 0 0 0 -71 -79 -88 -109 -148 -167 -130 -118 -80 -62 -45 -72 -159 -218 -180 -89 -77 -103 -169 -191 -176 -180 -217 -191 -85 -58 -163 -88 -4 0 0 0 -1 -40 0 0 0 0 0
0 0 0 0 -89 -39 -26 -79 -100 -114 -138 -130 -102 -104 -151 -227 -303 -255 -225 -72 -62 -74 -121 -172 -144 -112 -163 -102 -93 -57 -79 -37 -8 -1 0 -2 0 -1 -82 0 0 0 0
0 0 0 0 0 -25 -21 -46 -78 -106 -125 -136 -131 -141 -202 -231 -236 -246 -210 -170 -66 -66 -97 -100 -112 -84 -102 -63 -22 -26 -8 -30 -9 -11 -2 0 -1 -1 -38 -89 0 0 0
0 0 0 0 0 -67 -19 -30 -51 -82 -104 -145 -121 -140 -179 -206 -212 -189 -178 -148 -88 -55 -57 -88 -67 -74 -72 -67 -37 -8 -18 -4 -2 -6 -6 -1 -4 -32 -39 -111 0 0 0
0 0 0 0 0 0 -74 -15 -69 -87 -112 -113 -148 -150 -177 -149 -184 -185 -184 -183 -116 -76 -65 -64 -62 -89 -78 -81 -61 -3 -2 -2 0 0 -9 -2 -1 -4 -18 -52 -132 0 0
0 0 0 0 0 0 0 -33 -79 -105 -105 -118 -139 -154 -164 -171 -182 -187 -169 -172 -148 -153 -105 -95 -78 -91 -95 -77 -61 -31 -2 0 0 0 0 0 0 -1 -2 -57 0 0 0
0 0 0 0 0 0 0 -1 -68 -118 -101 -120 -126 -145 -195 -188 -214 -235 -221 -181 -175 -180 -131 -113 -104 -99 -99 -80 -66 -76 -27 -3 0 0 0 0 0 0 0 -24 -238 -157 0
-2 0 0 0 0 0 0 -63 -19 -61 -113 -134 -161 -187 -237 -256 -202 -207 -219 -230 -203 -223 -208 -169 -152 -136 -128 -102 -87 -104 -69 -33 -11 -2 0 0 0 0 0 -4 -131 -86 -53
0 0 0 0 0 0 0 -153 -4 -54 -70 -107 -190 -197 -208 -197 -155 -185 -238 -242 -214 -207 -198 -216 -205 -183 -171 -139 -114 -136 -118 -82 -54 -21 0 0 0 0 0 -55 -143 -102 -44
0 0 -2 0 0 0 0 0 -132 -32 -51 -117 -190 -208 -201 -153 -131 -158 -172 -192 -187 -164 -162 -195 -203 -184 -205 -164 -155 -157 -195 -136 -83 -37 -18 -1 0 0 0 -167 -166 -151 -161
0 0 0 0 0 0 -357 0 0 -188 -75 -77 -101 -125 -128 -149 -143 -169 -167 -124 -129 -147 -171 -172 -146 -147 -165 -147 -161 -153 -155 -130 -116 -69 -31 -35 -11 -27 -111 -147 -134 -210 0
0 0 0 0 0 0 0 -279 -380 0 -304 -112 -52 -70 -96 -146 -167 -165 -130 -120 -139 -116 -127 -142 -156 -138 -137 -125 -131 -152 -162 -191 -159 -123 -66 -62 -46 -121 -136 -273 -265 -1 0
-1 0 0 0 0 0 0 -360 -379 -360 -443 -503 -188 -63 -77 -110 -130 -163 -124 -101 -78 -106 -117 -104 -136 -130 -160 -176 -152 -175 -233 -216 -234 -235 -161 -148 -142 -209 -260 -121 0 0 0
0 0 -1 0 0 0 0 0 0 0 0 -388 -209 -220 -103 -113 -124 -108 -138 -120 -106 -97 -99 -99 -146 -202 -235 -318 -371 -226 -276 -251 -271 -319 -340 -397 -120 0 0 0 0 0 0
0 0 0 0 0 0 0 0 0 0 0 0 -460 -490 -410 -132 -105 -103 -83 -102 -96 -90 -89 -127 -178 -240 -265 -452 -769 -555 -259 -208 -271 -380 -667 0 0 0 0 0 0 0 0
0 0 0 -1 -1 0 0 0 0 0 0 0 0 -140 -438 -573 -195 -107 -96 -67 -52 -88 -126 -176 -222 -299 -304 -753 0 0 -337 -221 -390 -667 0 0 0 0 0 0 0 0 0
-1 0 -1 0 -2 -2 0 0 0 0 0 0 0 0 0 -155 -458 -265 -119 -73 -55 -85 -137 -210 -220 -335 -359 -711 0 0 -459 -570 0 0 0 0 0 0 0 0 0 0 0
0 -2 -2 0 -5 -8 -14 0 0 0 0 0 0 0 0 0 0 -328 -179 -67 -57 -85 -187 -199 -224 -281 -354 0 0 0 -490 0 0 0 0 0 0 0 0 0 0 0 0
0 0 -2 -2 -1 -6 -14 -6 0 0 0 0 0 0 0 0 0 0 0 -105 -67 -90 -190 -219 -229 -244 -409 0 0 0 0 0 0 0 0 0 0 0 0 0 0 0 0
0 0 0 0 0 -6 -1 -6 0 0 0 0 0 0 0 0 0 0 0 0 -192 -105 -192 -303 -247 -212 0 0 0 0 0 0 0 0 0 0 0 0 0 0 0 0 0
0 0 0 0 0 0 0 0 0 0 0 0 0 0 0 0 0 0 0 0 0 -18 -1 0 0 0 0 0 0 0 0 0 0 0 0 0 0 0 0 0 0 0 0
0 0 0 0 0 0 0 0 0 0 0 0 0 0 0 0 0 0 0 0 0 0 0 0 0 0 0 0 0 0 0 0 0 0 0 0 0 0 0 0 0 0 0
0 0 0 0 0 0 0 0 0 0 0 0 0 0 0 -24 -5 0 0 0 0 0 0 0 0 0 0 0 0 0 0 0 0 0 0 0 0 0 0 0 0 0 0
0 0 0 0 0 0 0 0 0 0 0 0 0 0 0 -2 -20 -9 0 0 0 0 0 0 0 0 0 0 0 0 0 0 0 0 0 0 0 0 0 0 0 0 0
Wind_Speed
16 18 18 19 20 21 24 26 26 25 17 16 16 16 15 14 13 13 16 17 16 18 17 12 13 13 12 12 12 11 12 9 10 9 7 5 6 5 4 4 3 5 4
23 16 16 17 20 22 25 26 27 26 21 17 16 15 14 14 12 11 16 17 18 19 17 16 14 15 12 14 14 14 11 10 11 10 11 8 5 5 5 5 5 4 6
24 22 17 17 19 22 24 24 26 27 24 23 15 14 12 8 10 12 14 18 19 19 20 19 14 15 13 13 14 15 16 13 12 15 8 8 7 10 6 6 5 4 6
26 25 22 17 20 20 21 24 24 25 23 25 20 23 18 17 15 13 12 16 20 21 20 20 17 15 13 14 15 14 14 13 14 13 12 6 2 8 6 7 5 5 6
28 26 24 22 17 19 20 21 24 25 24 24 22 19 19 15 14 14 18 19 18 21 22 20 19 17 14 15 15 16 17 13 13 13 13 12 8 6 6 8 7 4 4
30 29 23 22 21 17 20 20 23 25 25 25 24 23 23 19 16 16 15 14 15 15 21 21 18 17 16 16 15 16 18 15 14 13 14 13 13 10 7 6 12 9 6
22 26 28 23 21 22 22 20 24 25 26 25 25 24 23 23 21 18 15 17 14 14 19 21 19 16 18 17 16 16 16 17 15 16 13 12 13 12 11 8 11 6 7
19 26 25 24 23 20 21 23 24 24 25 25 25 23 23 16 16 19 15 14 14 16 18 20 19 21 20 18 17 13 14 16 15 19 16 12 12 12 10 10 11 8 5
22 22 25 23 23 22 20 21 25 25 24 25 22 22 20 22 20 21 18 14 16 15 17 20 21 21 21 20 19 15 16 15 16 17 17 15 12 11 12 12 12 9 9
20 20 21 24 20 20 21 20 23 24 24 24 21 20 22 22 20 18 19 20 18 19 18 19 20 21 21 21 21 17 17 18 14 14 18 17 13 14 12 11 11 10 9
19 21 20 21 20 20 19 17 20 24 21 21 22 21 21 22 20 19 20 20 19 19 19 20 20 20 21 21 20 20 18 20 19 18 19 20 19 13 13 10 11 11 10
17 13 1 8 12 15 16 19 18 20 20 22 22 23 22 20 21 21 21 20 20 19 19 19 20 20 21 20 21 21 19 21 21 20 20 20 14 17 14 11 14 12 9
14 8 6 6 5 4 8 11 15 18 20 21 20 20 20 20 21 22 21 19 19 20 20 20 20 21 21 20 21 20 19 19 20 20 20 20 18 17 13 14 13 10 8
11 9 8 8 6 5 4 3 5 9 14 18 19 19 20 21 21 20 19 19 19 19 20 21 20 19 19 20 20 20 18 19 17 17 19 18 19 19 17 14 15 11 10
18 12 11 12 11 9 8 7 4 2 6 12 17 18 18 18 18 17 18 18 19 19 20 19 19 19 17 15 20 19 20 19 15 15 17 16 18 17 16 13 13 15 13
17 19 14 12 14 14 12 10 10 8 5 6 12 14 16 18 18 17 17 16 18 20 19 19 19 18 13 16 17 17 17 18 17 16 16 15 12 13 17 16 20 21 19
13 18 18 16 15 15 14 15 13 12 11 7 4 8 12 16 16 16 16 18 18 17 19 17 17 18 17 15 19 19 17 17 17 16 14 8 7 12 12 8 11 13 16
8 8 13 16 18 16 14 13 13 14 13 12 10 10 7 13 15 16 17 18 16 17 16 15 15 15 14 18 20 22 19 15 16 15 15 14 13 14 15 14 12 11 8
3 2 5 10 13 18 15 12 15 14 15 16 15 12 10 10 13 17 16 15 15 14 15 12 18 15 14 17 20 18 18 12 13 13 15 15 16 19 23 18 16 12 5
9 6 3 4 8 11 14 14 14 15 15 15 14 13 11 10 10 12 14 13 13 14 10 13 16 17 16 16 20 21 12 12 10 11 13 17 18 26 26 19 19 17 13
13 15 5 6 6 5 9 13 13 14 13 13 13 14 13 11 10 10 9 12 13 12 12 13 13 16 15 11 21 25 13 12 9 8 8 9 15 28 27 20 18 17 19
16 16 10 9 10 7 6 8 12 13 11 13 14 15 13 10 9 10 8 8 9 11 12 12 5 3 7 13 18 21 17 15 12 10 7 7 20 24 20 12 16 27 19
13 12 12 11 11 11 12 13 8 12 11 11 13 13 15 11 9 9 8 6 6 5 7 8 7 3 1 3 11 9 8 14 8 7 9 18 23 20 12 19 26 19 12
11 12 13 12 11 12 13 12 14 15 12 11 10 12 12 13 9 6 7 5 5 4 2 3 6 4 3 5 6 7 10 15 12 15 12 13 13 11 15 16 14 9 10
12 12 12 13 14 14 13 13 13 14 13 11 7 8 10 10 10 3 3 5 3 4 1 1 4 7 7 5 8 12 10 9 11 15 10 11 10 11 10 11 10 10 11
11 11 12 13 15 15 15 14 13 14 13 12 8 5 6 8 7 5 5 1 4 8 6 5 6 3 9 14 12 12 16 24 23 9 11 10 11 12 12 12 12 10 14
Wind_Direction
256 247 239 222 210 199 200 198 192 190 190 194 194 198 202 200 201 201 203 198 200 193 198 201 192 196 202 200 191 192 188 198 193 179 138 137 133 123 90 76 70 133 146
250 245 241 217 204 202 201 198 198 190 190 195 196 201 198 203 200 201 208 205 203 199 195 203 192 194 200 200 195 197 190 200 191 196 178 170 155 122 106 120 117 143 140
253 244 237 227 208 207 198 202 200 194 191 198 195 199 201 193 200 198 210 211 206 206 202 200 201 193 203 197 198 201 199 196 193 218 199 193 209 147 134 93 86 86 97
249 252 243 219 209 211 201 206 203 199 196 195 195 199 198 198 203 205 208 218 209 209 206 201 203 199 200 201 197 200 204 206 196 203 219 241 180 201 162 122 97 102 114
246 247 240 236 224 203 208 204 204 203 197 195 203 196 206 204 204 207 203 213 209 212 208 206 199 203 204 203 199 199 205 206 208 201 206 202 201 207 169 164 150 113 123
239 248 247 243 234 209 205 204 208 202 201 199 202 199 202 205 204 202 202 201 210 205 210 207 204 203 204 204 202 202 203 213 214 211 213 211 208 195 191 163 161 153 157
259 244 241 242 230 226 200 205 205 206 202 200 199 202 203 203 204 200 201 198 201 204 206 205 207 201 205 204 205 205 207 208 213 217 212 213 215 222 208 183 158 154 151
249 254 242 239 238 227 227 201 205 210 203 201 203 203 203 203 208 206 200 206 205 206 202 203 205 209 205 206 205 208 210 208 214 215 217 215 220 214 204 186 164 159 163
258 249 252 236 239 232 218 201 208 209 206 203 201 204 203 208 207 210 208 206 209 209 205 203 206 205 205 204 202 207 207 210 211 215 214 222 214 215 199 209 193 176 178
296 255 251 252 234 233 225 218 204 208 205 199 200 204 204 206 211 206 208 210 211 209 205 205 205 206 205 206 203 206 208 207 208 211 213 214 218 212 210 207 204 201 194
303 278 246 250 245 235 229 223 205 211 204 197 199 204 206 207 208 212 210 211 212 209 211 207 205 206 205 204 208 210 206 211 208 210 213 213 210 211 209 197 204 198 194
320 302 312 310 271 250 236 222 222 211 206 202 198 204 207 204 210 215 215 212 212 211 210 209 210 209 209 206 209 209 206 210 209 208 210 216 209 211 206 198 198 197 194
339 351 34 33 46 309 261 241 228 229 219 208 203 209 210 205 212 217 217 214 215 214 212 211 212 209 206 205 208 210 208 212 211 208 209 210 204 202 199 201 199 190 172
341 9 26 26 34 49 333 283 220 250 245 223 212 211 212 207 208 212 215 216 214 214 214 212 213 214 211 208 208 207 206 210 215 213 214 210 207 201 198 198 196 176 161
341 9 23 37 30 34 32 17 14 297 245 242 227 216 216 217 216 212 210 213 215 215 216 215 213 213 213 211 208 203 205 206 207 211 212 210 212 191 192 182 180 174 167
351 351 351 23 25 30 30 27 15 6 347 275 244 242 220 219 218 220 216 214 217 217 217 218 212 211 210 201 193 198 203 202 204 204 206 203 182 182 177 188 178 178 168
8 355 352 355 14 15 32 33 19 19 23 11 286 252 260 231 218 218 219 220 218 217 219 215 213 211 211 181 185 192 202 204 205 201 192 170 171 159 172 144 169 179 185
349 21 8 3 350 356 10 31 25 21 28 21 10 0 302 255 241 221 218 219 217 216 214 210 210 210 213 177 186 190 208 210 203 191 180 174 162 172 161 154 159 165 164
341 24 62 33 12 352 345 17 24 20 22 19 11 358 354 328 260 240 223 219 216 214 215 203 205 203 212 182 186 184 204 199 189 178 179 174 173 166 159 158 155 147 123
19 348 88 97 28 6 344 349 16 16 15 7 357 356 354 347 333 290 240 225 218 213 200 210 209 209 208 177 180 187 197 192 181 180 180 178 178 166 165 163 164 167 165
7 7 8 22 39 48 9 355 354 15 3 357 355 355 1 346 337 332 327 246 224 206 200 207 208 210 206 182 186 189 188 189 175 172 174 183 165 166 172 170 177 175 148
353 358 6 25 17 353 357 32 344 341 3 353 0 355 352 352 343 350 347 347 266 205 205 200 177 213 179 176 192 190 183 165 167 175 173 161 155 164 167 164 135 139 140
343 342 342 357 3 3 360 5 354 341 350 5 350 345 342 350 359 351 359 354 358 319 185 179 180 171 78 114 153 151 178 158 149 146 153 150 153 148 121 134 135 144 142
344 342 343 348 344 350 353 352 348 345 344 352 353 340 340 334 358 355 347 356 345 357 357 268 160 141 124 132 145 125 107 99 97 102 117 123 123 121 125 130 140 142 142
346 348 344 342 348 349 349 343 354 339 340 331 335 348 335 324 323 343 351 335 345 320 309 299 302 162 165 184 158 156 147 134 134 117 119 128 132 138 144 155 156 148 146
343 343 345 346 342 346 344 345 349 345 333 325 327 339 322 321 310 312 342 57 9 332 316 72 287 250 127 111 112 116 124 132 136 123 148 155 159 163 164 166 161 166 158